| time (UTC) | temp C | wind direction | speed KPH | gust KPH | rain 1hr cm | rain 24hr cm | rain mn cm | humidity % | barometer mb |
| 20260510060150 | 12 | 0 | 0.0 | 0.0 | 0.00 | 1.09 | 0.00 | 96 | 1011.9 |
| 20260510053149 | 12 | 0 | 0.0 | 0.0 | 0.00 | 1.09 | 0.00 | 96 | 1012.2 |
| 20260510050149 | 12 | 0 | 0.0 | 0.0 | 0.00 | 1.09 | 0.00 | 96 | 1012.2 |
| 20260510043149 | 12 | 0 | 0.0 | 0.0 | 0.00 | 1.09 | 0.00 | 96 | 1012.2 |
| 20260510040150 | 12 | 0 | 0.0 | 0.0 | 0.00 | 1.09 | 0.00 | 96 | 1011.8 |
| 20260510030320 | 12 | 0 | 0.0 | 0.0 | 0.00 | 1.09 | 1.09 | 96 | 1012.0 |
| 20260510030150 | 12 | 0 | 0.0 | 0.0 | 0.00 | 1.09 | 1.09 | 96 | 1012.0 |
| 20260510020151 | 12 | 0 | 0.0 | 0.0 | 0.00 | 1.09 | 1.09 | 96 | 1011.9 |
| 20260510010150 | 12 | 0 | 0.0 | 0.0 | 0.00 | 1.09 | 1.09 | 96 | 1011.7 |
| 20260510000152 | 12 | 248 | 0.0 | 3.2 | 0.15 | 1.09 | 1.09 | 95 | 1011.2 |
| 20260509220150 | 13 | 233 | 0.0 | 4.8 | 0.08 | 0.58 | 0.58 | 95 | 1012.3 |
| 20260509210150 | 13 | 198 | 0.0 | 4.8 | 0.15 | 0.51 | 0.51 | 95 | 1011.9 |
| 20260509200150 | 14 | 220 | 3.2 | 8.0 | 0.13 | 0.36 | 0.36 | 92 | 1012.2 |
| 20260509180150 | 17 | 181 | 1.6 | 6.4 | 0.00 | 0.08 | 0.05 | 66 | 1011.6 |
| 20260509150150 | 14 | 227 | 0.0 | 3.2 | 0.00 | 0.08 | 0.05 | 80 | 1013.2 |
| 20260509140150 | 12 | 82 | 0.0 | 3.2 | 0.00 | 0.08 | 0.05 | 84 | 1013.2 |
| 20260509130153 | 10 | 336 | 0.0 | 1.6 | 0.00 | 0.08 | 0.05 | 88 | 1014.2 |
| 20260509120152 | 9 | 10 | 1.6 | 4.8 | 0.00 | 0.08 | 0.05 | 89 | 1014.8 |
| 20260509110151 | 8 | 26 | 0.0 | 3.2 | 0.00 | 0.08 | 0.05 | 94 | 1014.4 |
| 20260509100152 | 8 | 0 | 0.0 | 0.0 | 0.00 | 0.08 | 0.03 | 93 | 1014.2 |
| 20260509093149 | 8 | 0 | 0.0 | 0.0 | 0.00 | 0.08 | 0.03 | 93 | 1014.0 |
| 20260509090150 | 8 | 0 | 0.0 | 0.0 | 0.03 | 0.08 | 0.03 | 91 | 1014.2 |
| 20260509083149 | 8 | 0 | 0.0 | 0.0 | 0.03 | 0.08 | 0.03 | 86 | 1014.1 |
| 20260509080149 | 8 | 308 | 0.0 | 3.2 | 0.00 | 0.03 | 0.00 | 85 | 1013.9 |
| 20260509070150 | 8 | 0 | 0.0 | 0.0 | 0.00 | 0.03 | 0.00 | 86 | 1013.7 |
| 20260509063149 | 9 | 0 | 0.0 | 0.0 | 0.00 | 0.03 | 0.00 | 85 | 1014.2 |